[[{"header":{"parameterUnit":"m.s-1","parameterCategory":1,"la1":30.2991,"la2":30.254,"lo1":-89.0895,"lo2":-89.0444,"dy":0.0017,"dx":0.0017,"nx":28,"ny":28,"refTime":"2024-12-04T03:00:00:Z","depth":0,"parameterNumber":2,"parameterNumberName":"U-component_of_WINDS"},"data":[0,0,0,0,0,0,0,0,0,0,0,0,0,0,0,0,0,0,0,0,0,0,0,0,0,0,0,0,0,0,0,0,0,0,0,0,0,0,0,0,0,0,0,0,0,0,0,0,0,0,0,0,0,0,0,0,0,0,-4.3282,-4.3282,0,-4.3313,-4.3313,-4.3313,-4.3178,-4.3174,-4.317,-4.3166,-4.3197,-4.3201,-4.3205,0,0,0,0,0,0,0,0,0,0,0,0,0,-4.3105,-4.3109,-4.3282,-4.3282,-4.3283,-4.3313,-4.3313,-4.3313,-4.3178,-4.3174,-4.3169,-4.3164,-4.3195,-4.32,-4.3206,0,0,0,0,0,0,0,0,0,0,0,0,0,-4.3163,-4.311,-4.3282,-4.3219,-4.3214,-4.3312,-4.3313,-4.3313,-4.3179,-4.3173,-4.3168,-4.3162,-4.3193,-4.32,-4.3207,-4.3367,0,0,-4.3227,-4.323,0,0,0,0,0,0,0,0,-4.316,-4.317,-4.3228,-4.3224,-4.3218,-4.3235,-4.3261,-4.3331,-4.3181,-4.3192,-4.3166,-4.3159,-4.3214,-4.3219,-4.3238,-4.3368,-4.337,-4.3228,-4.3232,-4.3235,-4.3237,0,0,0,0,0,0,0,-4.3156,-4.3168,-4.3294,-4.3229,-4.3223,-4.3189,-4.319,-4.3274,-4.3236,-4.3191,-4.3181,-4.3187,-4.321,-4.3231,-4.3237,-4.337,-4.3228,-4.3234,-4.3238,-4.324,-4.3631,-4.3637,0,0,0,0,0,0,-4.3161,-4.3165,-4.3293,-4.3295,-4.3174,-4.3197,-4.3199,-4.3236,-4.3235,-4.3229,-4.3192,-4.318,-4.3223,-4.323,-4.3238,-4.3423,-4.3235,-4.3241,-4.3245,-4.3625,-4.3633,-4.364,0,0,0,0,0,0,-4.3157,-4.3173,-4.3292,-4.3227,-4.324,-4.3206,-4.3249,-4.3239,-4.326,-4.3236,-4.3228,-4.322,-4.3218,-4.3228,-4.3335,-4.3423,-4.3244,-4.325,-4.3618,-4.3628,-4.3636,-4.3797,0,0,0,0,0,0,-4.3153,-4.3173,-4.3234,-4.323,-4.3244,-4.339,-4.3254,-4.3244,-4.3272,-4.3258,-4.326,-4.3255,-4.3214,-4.3326,-4.3342,-4.3429,-4.3255,-4.361,-4.3622,-4.3633,-4.3784,-4.3811,-4.3834,0,0,0,0,0,-4.3147,-4.3279,-4.3238,-4.3254,-4.332,-4.3395,-4.3403,-4.3354,-4.328,-4.334,-4.3324,-4.3255,-4.3411,-4.3338,-4.3355,-4.3445,-4.3604,-4.3619,-4.3632,-4.3773,-4.3806,-4.3834,0,0,0,0,0,0,-4.3294,-4.3277,-4.3232,-4.3366,-4.3383,-4.3372,-4.3447,-4.3391,-4.3429,-4.3414,-4.3351,-4.3352,-4.347,-4.3468,-4.3387,-4.3599,-4.3494,-4.3513,-4.3595,-4.3627,-4.3651,-4.3648,-4.3261,0,0,0,0,0,-4.3342,-4.3405,-4.3387,-4.3507,-4.3518,-4.3482,-4.3513,-4.3473,-4.3488,-4.3495,-4.3486,-4.3503,-4.3555,-4.3591,-4.3638,-4.3784,-4.3781,-4.3854,-4.3879,-4.39,-4.3916,-4.399,-4.4022,-4.3687,-4.3686,-4.3686,0,0,-4.3442,-4.344,-4.3484,-4.3537,-4.3545,-4.3611,-4.3488,-4.3564,-4.3611,-4.3506,-4.3605,-4.3601,-4.3615,-4.3742,-4.3797,-4.3744,-4.4008,-4.3918,-4.3935,-4.3939,-4.4008,-4.404,-4.4068,-4.3696,-4.3694,-4.3693,0,0,-4.3657,-4.3663,-4.3763,-4.3774,-4.3788,-4.3763,-4.3787,-4.3785,-4.3777,-4.3877,-4.3798,-4.3854,-4.3946,-4.3959,-4.3978,-4.4197,-4.4134,-4.4215,-4.4345,-4.4419,-4.4445,-4.4468,-4.4544,-4.4572,-4.4231,-4.4231,-4.4232,0,-4.3778,-4.3875,-4.3821,-4.3901,-4.3925,-4.3833,-4.3933,-4.3946,-4.3976,-4.3994,-4.3935,-4.4047,-4.4051,-4.4178,-4.4231,-4.4251,-4.4275,-4.4213,-4.4446,-4.4468,-4.4489,-4.456,-4.4589,-4.4241,-4.424,-4.4239,-4.4238,0,-4.4023,-4.4091,-4.417,-4.42,-4.4233,-4.4323,-4.4282,-4.4322,-4.428,-4.4261,-4.4363,-4.4364,-4.4408,-4.4436,-4.4396,-4.4557,-4.4524,-4.4457,-4.435,-4.4531,-4.4597,-4.4624,-4.4255,-4.4251,-4.4248,-4.4246,0,0,-4.433,-4.4329,-4.4358,-4.437,-4.4379,-4.443,-4.4516,-4.4559,-4.4594,-4.4618,-4.4686,-4.4766,-4.4703,-4.4725,-4.4685,-4.475,-4.4921,-4.4674,-4.4673,-4.4718,-4.5096,-4.5145,-4.5177,-4.488,-4.4885,-4.4889,-4.5094,0,-4.4538,-4.4683,-4.4637,-4.4783,-4.4844,-4.4757,-4.4831,-4.4844,-4.4829,-4.4878,-4.486,-4.4917,-4.4831,-4.4843,-4.4904,-4.4888,-4.4995,-4.4872,-4.4941,-4.4944,-4.4938,-4.5212,-4.5264,-4.5457,-4.5119,-4.5124,-4.5127,0,-4.48,-4.4834,-4.4986,-4.4983,-4.5007,-4.5074,-4.511,-4.5158,-4.5171,-4.5155,-4.5179,-4.5126,-4.5208,-4.5103,-4.5214,-4.5131,-4.5157,-4.5153,-4.5159,-4.5162,-4.5045,-4.522,-4.5518,-4.5546,-4.5168,-4.5164,-4.5161,0,-4.5006,-4.5089,-4.519,-4.5203,-4.5204,-4.5252,-4.5255,-4.5261,-4.529,-4.5321,-4.5339,-4.538,-4.5402,-4.5434,-4.5393,-4.5321,-4.5509,-4.5401,-4.5497,-4.5498,-4.5538,-4.5536,-4.5842,-4.556,-4.5559,-4.5559,-4.5558,0,-4.5242,-4.5338,-4.5282,-4.5344,-4.5449,-4.5395,-4.5499,-4.5492,-4.5499,-4.5557,-4.5485,-4.5542,-4.5485,-4.5535,-4.5504,-4.5599,-4.561,-4.5599,-4.5588,-4.5604,-4.5605,-4.5617,-4.5602,-4.5566,-4.5565,-4.5563,-4.5562,0,-4.5488,-4.5455,-4.5559,-4.555,-4.5551,-4.5628,-4.562,-4.5676,-4.5656,-4.573,-4.5745,-4.5713,-4.5768,-4.5731,-4.5788,-4.5766,-4.589,-4.5863,-4.5886,-4.5877,-4.5974,-4.5964,-4.6297,-4.6337,-4.6032,-4.6035,-4.6037,0,-4.5639,-4.5711,-4.571,-4.5744,-4.5751,-4.5807,-4.5835,-4.5785,-4.5817,-4.5837,-4.5891,-4.5941,-4.5977,-4.607,-4.6052,-4.6094,-4.6065,-4.6179,-4.6071,-4.6083,-4.6064,-4.6059,-4.6065,-4.62,-4.6204,-4.6207,-4.6209,0,-4.5911,-4.5891,-4.5935,-4.5974,-4.601,-4.6038,-4.606,-4.6092,-4.6041,-4.6082,-4.6138,-4.6166,-4.6223,-4.6273,-4.6308,-4.6309,-4.6251,-4.6244,-4.6267,-4.6282,-4.6291,-4.6285,-4.5942,-4.6236,-4.6233,-4.6231,-4.623,-4.6228,-4.6112,-4.6171,-4.6179,-4.623,-4.6241,-4.6264,-4.6316,-4.6302,-4.6348,-4.639,-4.6358,-4.6424,-4.6433,-4.6474,-4.6483,-4.6533,-4.6487,-4.6522,-4.653,-4.6539,-4.6551,-4.6286,-4.654,-4.6539,-4.6539,-4.6538,-4.6537,0,-4.6377,-4.6378,-4.6426,-4.6459,-4.6499,-4.6441,-4.6463,-4.65,-4.6559,-4.6573,-4.6611,-4.6675,-4.6722,-4.6708,-4.675,-4.6793,-4.6767,-4.6805,-4.68,-4.6801,-4.6592,-4.6566,-4.6825,-4.6825,-4.6825,-4.6825,-4.6825,-4.6825,-4.6519,-4.6615,-4.6596,-4.6696,-4.6696,-4.676,-4.6777,-4.6797,-4.6807,-4.6882,-4.6921,-4.6911,-4.6913,-4.6955,-4.6995,-4.699,-4.7007,-4.7055,-4.704,-4.6844,-4.6816,-4.6789,-4.6764,-4.706,-4.7061,-4.7244,-4.7246,-4.7247]},{"header":{"parameterUnit":"m.s-1","parameterCategory":1,"la1":30.2991,"la2":30.254,"lo1":-89.0895,"lo2":-89.0444,"dy":0.0017,"dx":0.0017,"nx":28,"ny":28,"refTime":"2024-12-04T03:00:00:Z","depth":0,"parameterNumber":3,"parameterNumberName":"V-component_of_WINDS"},"data":[0,0,0,0,0,0,0,0,0,0,0,0,0,0,0,0,0,0,0,0,0,0,0,0,0,0,0,0,0,0,0,0,0,0,0,0,0,0,0,0,0,0,0,0,0,0,0,0,0,0,0,0,0,0,0,0,0,0,-1.8592,-1.8593,0,-1.8645,-1.8645,-1.8646,-1.8644,-1.8643,-1.8643,-1.8642,-1.8694,-1.8696,-1.8698,0,0,0,0,0,0,0,0,0,0,0,0,0,-1.8488,-1.849,-1.8592,-1.8593,-1.8594,-1.8644,-1.8645,-1.8646,-1.8644,-1.8643,-1.8642,-1.8642,-1.8694,-1.8696,-1.8699,0,0,0,0,0,0,0,0,0,0,0,0,0,-1.8536,-1.8491,-1.8592,-1.8599,-1.86,-1.8644,-1.8645,-1.8646,-1.8644,-1.8643,-1.8642,-1.8641,-1.8693,-1.8696,-1.8699,-1.874,0,0,-1.8708,-1.871,0,0,0,0,0,0,0,0,-1.8534,-1.854,-1.8597,-1.8598,-1.86,-1.8637,-1.8628,-1.8677,-1.8645,-1.8627,-1.8642,-1.8641,-1.8676,-1.868,-1.8693,-1.8742,-1.8744,-1.8709,-1.8711,-1.8712,-1.8713,0,0,0,0,0,0,0,-1.853,-1.8538,-1.8613,-1.8598,-1.86,-1.8598,-1.8604,-1.8637,-1.8657,-1.8629,-1.8629,-1.8635,-1.8676,-1.869,-1.8694,-1.8745,-1.8709,-1.8711,-1.8713,-1.8714,-1.8829,-1.883,0,0,0,0,0,0,-1.8526,-1.8535,-1.8611,-1.8614,-1.8563,-1.8601,-1.8607,-1.8626,-1.8657,-1.866,-1.8636,-1.8635,-1.8685,-1.869,-1.8696,-1.8744,-1.8712,-1.8715,-1.8717,-1.8828,-1.8829,-1.8831,0,0,0,0,0,0,-1.8524,-1.8533,-1.8609,-1.8575,-1.8584,-1.8604,-1.8625,-1.8627,-1.8641,-1.8662,-1.8665,-1.8646,-1.8684,-1.8691,-1.8728,-1.8746,-1.8716,-1.8719,-1.8826,-1.8828,-1.883,-1.8843,0,0,0,0,0,0,-1.8521,-1.8532,-1.8548,-1.8575,-1.8586,-1.8642,-1.8626,-1.8629,-1.8646,-1.8645,-1.8672,-1.8676,-1.8684,-1.8724,-1.8731,-1.875,-1.8721,-1.8825,-1.8827,-1.8829,-1.8841,-1.8844,-1.8848,0,0,0,0,0,-1.8517,-1.855,-1.8549,-1.8558,-1.8607,-1.8643,-1.8649,-1.8658,-1.8648,-1.8664,-1.8677,-1.8675,-1.8743,-1.8728,-1.8736,-1.8756,-1.8824,-1.8827,-1.8829,-1.8839,-1.8844,-1.8848,0,0,0,0,0,0,-1.8524,-1.8554,-1.8553,-1.8596,-1.8617,-1.8643,-1.8663,-1.8663,-1.8687,-1.8685,-1.8695,-1.8701,-1.8738,-1.8751,-1.8733,-1.8796,-1.8782,-1.8786,-1.8786,-1.8791,-1.8795,-1.8791,-1.8724,0,0,0,0,0,-1.8531,-1.8558,-1.8582,-1.8617,-1.8628,-1.8644,-1.8659,-1.8664,-1.8686,-1.8695,-1.8712,-1.8733,-1.8759,-1.8776,-1.8801,-1.8842,-1.8848,-1.886,-1.8863,-1.8866,-1.887,-1.8891,-1.8897,-1.8839,-1.8839,-1.8839,0,0,-1.8545,-1.8564,-1.8581,-1.8619,-1.8636,-1.8663,-1.8651,-1.8681,-1.87,-1.87,-1.8736,-1.8748,-1.8772,-1.8811,-1.8829,-1.8823,-1.8887,-1.887,-1.8872,-1.8874,-1.8895,-1.89,-1.8905,-1.8841,-1.8841,-1.884,0,0,-1.8584,-1.8602,-1.8632,-1.8649,-1.8675,-1.8685,-1.8692,-1.8718,-1.8726,-1.8763,-1.8762,-1.8785,-1.883,-1.8847,-1.8861,-1.8905,-1.8903,-1.8913,-1.8932,-1.8953,-1.8957,-1.8961,-1.8976,-1.8981,-1.8917,-1.8917,-1.8917,0,-1.8598,-1.8639,-1.8648,-1.8677,-1.8693,-1.8694,-1.8725,-1.874,-1.8773,-1.8784,-1.8776,-1.8832,-1.8848,-1.889,-1.8901,-1.8913,-1.892,-1.891,-1.8956,-1.896,-1.8964,-1.8978,-1.8983,-1.8918,-1.8917,-1.8917,-1.8917,0,-1.8654,-1.8683,-1.8704,-1.8735,-1.8754,-1.8784,-1.8796,-1.8814,-1.8817,-1.8827,-1.8863,-1.8883,-1.8911,-1.8922,-1.8925,-1.8964,-1.8959,-1.8954,-1.894,-1.897,-1.8983,-1.8989,-1.8919,-1.8919,-1.8918,-1.8918,0,0,-1.87,-1.8735,-1.8743,-1.8756,-1.8784,-1.8805,-1.8834,-1.8862,-1.8877,-1.8899,-1.8923,-1.896,-1.8954,-1.8971,-1.8976,-1.8994,-1.9026,-1.8986,-1.8987,-1.8992,-1.9069,-1.9072,-1.9079,-1.9025,-1.9026,-1.9027,-1.9066,0,-1.8741,-1.8793,-1.8801,-1.8847,-1.8872,-1.8872,-1.8898,-1.8917,-1.8927,-1.895,-1.8961,-1.8987,-1.8978,-1.8988,-1.9006,-1.9018,-1.9041,-1.9016,-1.9046,-1.9047,-1.904,-1.9086,-1.909,-1.9126,-1.9072,-1.9073,-1.9073,0,-1.8796,-1.8819,-1.8867,-1.889,-1.8901,-1.8924,-1.8949,-1.8971,-1.8992,-1.8998,-1.9016,-1.9018,-1.9047,-1.9032,-1.9072,-1.9054,-1.9067,-1.9075,-1.9076,-1.9079,-1.9062,-1.9089,-1.9138,-1.9144,-1.9082,-1.9081,-1.908,0,-1.8824,-1.8867,-1.89,-1.8912,-1.894,-1.8956,-1.8968,-1.8988,-1.9004,-1.9026,-1.9036,-1.9061,-1.9075,-1.9093,-1.9102,-1.9091,-1.9141,-1.9127,-1.9146,-1.9146,-1.9156,-1.9155,-1.9208,-1.9166,-1.9166,-1.9165,-1.9165,0,-1.8868,-1.8897,-1.8913,-1.8934,-1.8966,-1.8974,-1.9006,-1.9017,-1.9035,-1.9057,-1.9059,-1.908,-1.909,-1.9112,-1.912,-1.915,-1.9157,-1.9162,-1.9163,-1.9161,-1.9161,-1.917,-1.9167,-1.9167,-1.9167,-1.9166,-1.9166,0,-1.8904,-1.8916,-1.8953,-1.8976,-1.8982,-1.9004,-1.9024,-1.9043,-1.9053,-1.9081,-1.9088,-1.9104,-1.9129,-1.914,-1.9172,-1.9177,-1.9212,-1.9212,-1.9205,-1.9205,-1.9223,-1.9221,-1.9283,-1.9291,-1.9244,-1.9245,-1.9245,0,-1.8932,-1.8954,-1.8979,-1.8994,-1.9007,-1.9031,-1.9047,-1.9056,-1.9072,-1.9097,-1.9114,-1.914,-1.9161,-1.9202,-1.9216,-1.924,-1.924,-1.9259,-1.9243,-1.924,-1.9239,-1.9237,-1.9239,-1.9262,-1.9263,-1.9263,-1.9264,0,-1.8979,-1.8983,-1.9006,-1.9031,-1.905,-1.907,-1.9089,-1.9101,-1.9113,-1.9131,-1.9158,-1.9174,-1.9206,-1.9232,-1.9256,-1.9268,-1.9267,-1.9269,-1.9274,-1.9272,-1.9267,-1.9269,-1.9212,-1.9267,-1.9267,-1.9266,-1.9266,-1.9266,-1.9011,-1.903,-1.905,-1.9076,-1.9091,-1.9109,-1.9128,-1.914,-1.9162,-1.9189,-1.9193,-1.9221,-1.924,-1.9273,-1.9286,-1.9307,-1.9302,-1.931,-1.9312,-1.9314,-1.9315,-1.9264,-1.9312,-1.9312,-1.9312,-1.9312,-1.9312,0,-1.9057,-1.907,-1.9093,-1.912,-1.9139,-1.9137,-1.9158,-1.9175,-1.9199,-1.9217,-1.9238,-1.9268,-1.9292,-1.9307,-1.9331,-1.9345,-1.9346,-1.9351,-1.935,-1.9353,-1.9319,-1.9311,-1.9351,-1.9351,-1.9351,-1.9351,-1.9351,-1.9351,-1.9084,-1.9116,-1.9122,-1.9161,-1.9174,-1.9202,-1.9213,-1.9229,-1.9244,-1.9277,-1.9297,-1.9307,-1.9323,-1.9348,-1.937,-1.9374,-1.9382,-1.9388,-1.9392,-1.9359,-1.9355,-1.9351,-1.9344,-1.939,-1.939,-1.9424,-1.9424,-1.9424]}]]